Raton, NM

2:29 AM MST on February 07, 2016 (GMT -0700)
Raton Municipal-Crews

Weather History for KRTN - February, 2012

Change the Weather History Date:

Friday, February 10, 2012

  Actual Average (KTAD) Record (KTAD)
Temperature  
Mean Temperature 34 °F 34 °F  
Max Temperature 53 °F 49 °F 74 °F (1951)
Min Temperature 16 °F 19 °F -17 °F (1981)
Degree Days  
Heating Degree Days 30 31  
Month to date heating degree days 317  
Since 1 July heating degree days 3599  
Cooling Degree Days 0 0  
Month to date cooling degree days 0  
Year to date cooling degree days 0  
Moisture  
Dew Point 16 °F    
Average Humidity 56    
Maximum Humidity 84    
Minimum Humidity 21    
Precipitation  
Precipitation 0.00 in 0.01 in 0.40 in (1963)
Month to date precipitation 0.15  
Year to date precipitation 0.55  
Sea Level Pressure  
Sea Level Pressure 30.15 in    
Wind  
Wind Speed 5 mph (NNE)    
Max Wind Speed 10 mph    
Max Gust Speed 25 mph    
Visibility 10 miles    
Events      
T = Trace of Precipitation, MM = Missing Value Source: NWS Daily Summary

Daily Weather History Graph

Daily Weather History Graph

Search for Another Location

Airport or City:

Trip Planner

Search our weather history database for the weather conditions in past years. The results will help you decide how hot, cold, wet, or windy it might be!

Date:

Astronomy

Feb. 10, 2012 Rise Set
Actual Time 6:52 AM MST 5:32 PM MST
Civil Twilight 6:25 AM MST 5:59 PM MST
Nautical Twilight 5:54 AM MST 6:30 PM MST
Astronomical Twilight 5:24 AM MST 7:00 PM MST
Moon 9:05 PM MST (2/10) 8:08 AM MST (2/10)
Length of Visible Light 11h 34m
Length of Day
10h 40m
Waning Gibbous, 89% of the Moon is Illuminated
Feb 10
Waning Gibbous
Feb 14
Last Quarter
Feb 21
New
Feb 29
First Quarter
Mar 8
Full

Hourly Weather History & Observations

Time (MST) Temp. Windchill Dew Point Humidity Pressure Visibility Wind Dir Wind Speed Gust Speed Precip Events Conditions
12:53 AM 25.0 °F 18.1 °F 19.0 °F 78% 30.17 in 10.0 mi NE 5.8 mph - N/A   Clear
1:53 AM 24.1 °F 17.0 °F 18.0 °F 77% 30.19 in 10.0 mi East 5.8 mph - N/A   Partly Cloudy
2:53 AM 19.9 °F 14.9 °F 15.1 °F 81% 30.18 in 10.0 mi NNE 3.5 mph - N/A   Clear
3:53 AM 21.9 °F 15.7 °F 17.1 °F 82% 30.18 in 10.0 mi ENE 4.6 mph - N/A   Clear
4:53 AM 16.0 °F 10.4 °F 12.0 °F 84% 30.23 in 10.0 mi NNW 3.5 mph - N/A   Clear
5:53 AM 16.0 °F 6.3 °F 12.0 °F 84% 30.24 in 10.0 mi North 6.9 mph - N/A   Clear
6:53 AM 19.0 °F 12.3 °F 14.0 °F 81% 30.23 in 10.0 mi NE 4.6 mph - N/A   Clear
7:53 AM 21.0 °F 14.6 °F 14.0 °F 74% 30.23 in 10.0 mi NE 4.6 mph - N/A   Clear
8:53 AM 30.0 °F 23.2 °F 19.9 °F 66% 30.19 in 10.0 mi ENE 6.9 mph - N/A   Clear
9:53 AM 37.0 °F 34.5 °F 21.9 °F 54% 30.18 in 10.0 mi Variable 3.5 mph - N/A   Clear
10:53 AM 39.9 °F 34.5 °F 23.0 °F 51% 30.16 in 10.0 mi SSW 8.1 mph - N/A   Clear
11:53 AM 42.1 °F 38.4 °F 21.9 °F 45% 30.12 in 10.0 mi WSW 5.8 mph - N/A   Clear
12:53 PM 46.9 °F - 19.0 °F 33% 30.07 in 10.0 mi SSW 6.9 mph - N/A   Clear
1:53 PM 50.0 °F - 19.0 °F 29% 30.04 in 10.0 mi SW 4.6 mph - N/A   Partly Cloudy
2:53 PM 50.0 °F - 15.1 °F 25% 30.05 in 10.0 mi SSE 8.1 mph - N/A   Clear
3:53 PM 53.1 °F - 14.0 °F 21% 30.02 in 10.0 mi Calm Calm - N/A   Clear
4:53 PM 48.9 °F - 14.0 °F 25% 30.07 in 10.0 mi ENE 5.8 mph - N/A   Clear
5:53 PM 41.0 °F 39.0 °F 12.9 °F 32% 30.12 in 10.0 mi ENE 3.5 mph - N/A   Clear
6:53 PM 32.0 °F 24.8 °F 12.9 °F 45% 30.17 in 10.0 mi North 8.1 mph - N/A   Partly Cloudy
7:53 PM 33.1 °F 27.7 °F 14.0 °F 46% 30.19 in 10.0 mi NNE 5.8 mph - N/A   Clear
8:53 PM 28.9 °F 19.8 °F 14.0 °F 54% 30.17 in 10.0 mi North 10.4 mph 25.3 mph N/A   Clear
9:53 PM 27.0 °F 23.0 °F 14.0 °F 58% 30.16 in 10.0 mi NNW 3.5 mph - N/A   Clear
10:53 PM 28.0 °F 22.8 °F 15.1 °F 58% 30.14 in 10.0 mi WNW 4.6 mph - N/A   Clear
11:53 PM 26.1 °F - 17.1 °F 69% 30.15 in 10.0 mi Calm Calm - N/A   Clear